Regional Weather Roundup
Issued by NWS Nashville, TN

Home | Current Version | Previous Version | Text Only | Print | Product List | Glossary On
Versions: 1 2 3 4 5 6 7 8 9 10 11 12 13 14 15 16 17 18 19 20 21 22 23 24 25 26 27
000
ASUS44 KOHX 142110
RWROHX
MIDDLE TENNESSEE HOURLY WEATHER ROUNDUP
NATIONAL WEATHER SERVICE NASHVILLE TN
300 PM CST THU DEC 14 2017

NOTE: "FAIR" INDICATES FEW OR NO CLOUDS BELOW 12,000 FEET WITH
NO SIGNIFICANT WEATHER AND/OR OBSTRUCTIONS TO VISIBILITY.

* THESE REPORTS ARE NOT UNDER NWS QUALITY CONTROL AND MAY NOT
  REPORT WEATHER SUCH AS PRECIPITATION AND FOG.


TNZ005>011-023>034-057-059-062>066-078-080-142200
...NORTHERN MIDDLE TENNESSEE...

CITY           SKY/WX    TMP DP  RH WIND       PRES   REMARKS
CLARKSVILLE    CLOUDY    34  20  56 N9        30.05S WCI  27
CROSSVILLE     SUNNY     39  25  57 W8        29.94R WCI  33
GALLATIN       CLOUDY    37  23  56 NW8       30.06R WCI  31
DICKSON          N/A     35  22  59 NW8       30.02R WCI  28
NASHVILLE      CLOUDY    39  25  57 NW10      30.04R WCI  32
PORTLAND       CLOUDY    34  23  64 NW5       30.03R WCI  30
SMYRNA         CLOUDY    39  26  59 N10       30.04R WCI  32
SPARTA         CLOUDY    39  27  60 VRB5      29.98R
SPRINGFIELD    CLOUDY    36  23  60 W7        30.02R WCI  30
WEST NASHVILLE CLOUDY    37  23  56 N10       30.02R WCI  30
$$
TNZ056-058-060-061-075>077-079-093>097-142200
...SOUTHERN MIDDLE TENNESSEE...

CITY           SKY/WX    TMP DP  RH WIND       PRES   REMARKS
COLUMBIA       SUNNY     45  27  49 N8        29.98R
FAYETTEVILLE   SUNNY     48  30  49 N8        29.96R
MURFREESBORO   CLOUDY    40  26  57 NW8       30.01R WCI  34
PULASKI        SUNNY     50  30  46 N7        29.97S
SHELBYVILLE    SUNNY     43  30  61 N10       29.99R
TULLAHOMA      SUNNY     45  28  53 VRB3      29.96R
WINCHESTER     SUNNY     46  30  53 W7        29.97R
$$


...KEY TO REMARKS...
VSB - VISIBILITY IN MILES
WCI - WIND CHILL INDEX
HX  - HEAT INDEX





USA.gov is the U.S. government's official web portal to all federal, state and local government web resources and services.